Content
SEND FEEDBACK

Daily
Averages
Monthly
Summary
Spain

POZUELO DE ALARCON, SPAIN


Home > Europe > Spain
Elevation: 2156 feet     Latitude: 40 24N     Longitude: 003 42W

WEATHER
 
SELECT A DAY
Number of Records: 161,392;   Date Range: 7/1/96 - 11/23/14
 
SHARE

PRINT THIS DATA

[ ← Previous Day ]
WEATHER ALMANAC - FEBRUARY 13, 2013
[ Next Day → ]
[ °C ]   °F
Weather ElementAverageHighLow
Temperature53.9 °F60.8 °F (2:00 pm)42.8 °F (7:30 am)
Dewpoint41.7 °F44.6 °F (12:00 pm)39.2 °F (7:30 am)
Humidity64.6 %87 % (7:30 am)48 % (4:30 pm)
Barometer30.15 in30.21 in (8:00 pm)30.09 in (7:30 am)
Wind Speed11.1 mph20.7 mph (11:30 am)
Weather ElementAverage
Visibility6.2 mi
Wind DirectionWNW (295.8 °)

Weather ElementTotal
Precipitation---
Heating Degree Days13.2 (Base 65)
Growing Degree Days1.8 (Base 50)
Averaged from 26 records on February 13, 2013
WEATHER CONDITIONS BREAKOUT
WIND DIRECTION BREAKOUT
WEATHER BY HOUR - FEBRUARY 13, 2013
[ °C ]   °F
Local TimeTemperatureDewpointHumidityBarometerVisibilityWind DirectionWind SpeedGust SpeedPrecipitationEventsConditions
7:30 AM42.8 °F39.2 °F87 %30.09 in6.2 miWNW (290°)3.5 mphScattered Clouds
8:00 AM44.6 °F41.0 °F87 %30.12 in6.2 miWest (280°)9.2 mphScattered Clouds
8:30 AM44.6 °F41.0 °F87 %30.12 in6.2 miWest (280°)10.4 mphScattered Clouds
9:00 AM46.4 °F41.0 °F81 %30.12 in6.2 miWNW (290°)12.7 mphScattered Clouds
9:30 AM44.6 °F41.0 °F87 %30.12 in6.2 miWest (280°)10.4 mphScattered Clouds
10:00 AM46.4 °F41.0 °F81 %30.12 in6.2 miWSW (240°)4.6 mphPartly Cloudy
10:30 AM51.8 °F42.8 °F71 %30.15 in6.2 miWNW (290°)10.4 mphPartly Cloudy
11:00 AM53.6 °F42.8 °F67 %30.15 in6.2 miWNW (290°)17.3 mphPartly Cloudy
11:30 AM51.8 °F42.8 °F71 %30.15 in6.2 miWNW (290°)20.7 mphPartly Cloudy
12:00 PM53.6 °F44.6 °F72 %30.15 in6.2 miWNW (300°)15.0 mphPartly Cloudy
12:30 PM57.2 °F44.6 °F63 %30.15 in6.2 miNW (310°)11.5 mphPartly Cloudy
1:00 PM59.0 °F42.8 °F55 %30.15 in6.2 miWNW (300°)12.7 mphPartly Cloudy
1:30 PM57.2 °F41.0 °F55 %30.15 in6.2 miNNW (330°)12.7 mphPartly Cloudy
2:00 PM60.8 °F42.8 °F52 %30.15 in6.2 miNW (310°)11.5 mphPartly Cloudy
2:30 PM60.8 °F42.8 °F52 %30.15 in6.2 miWNW (300°)10.4 mphPartly Cloudy
3:00 PM59.0 °F41.0 °F51 %30.15 in6.2 miWNW (300°)16.1 mphPartly Cloudy
3:30 PM59.0 °F42.8 °F55 %30.15 in6.2 miWNW (290°)12.7 mphScattered Clouds
4:00 PM59.0 °F41.0 °F51 %30.15 in6.2 miWNW (300°)10.4 mphScattered Clouds
4:30 PM60.8 °F41.0 °F48 %30.15 in6.2 miWNW (300°)13.8 mphScattered Clouds
5:00 PM59.0 °F41.0 °F51 %30.18 in6.2 miNW (310°)11.5 mphScattered Clouds
5:30 PM57.2 °F41.0 °F55 %30.18 in6.2 miWNW (300°)10.4 mphScattered Clouds
6:00 PM57.2 °F41.0 °F55 %30.18 in6.2 miNW (310°)10.4 mphScattered Clouds
6:30 PM55.4 °F41.0 °F58 %30.18 in6.2 miWNW (300°)9.2 mphPartly Cloudy
7:00 PM55.4 °F41.0 °F58 %30.18 in6.2 miWNW (300°)8.1 mphPartly Cloudy
7:30 PM53.6 °F41.0 °F62 %30.18 in6.2 miWNW (300°)8.1 mphPartly Cloudy
8:00 PM51.8 °F41.0 °F67 %30.21 in6.2 miWNW (300°)4.6 mphPartly Cloudy
Hourly data recorded from LEVS, located miles away from Pozuelo de Alarcon, Spain







STORIES FROM OUR PARTNERS